When you browse on this site, cookies collect data to enhance your experience and personalize the content and advertising you see.
Visit our Privacy Policy to learn more. By continuing to use the site, you agree to this use of cookies and data.

Météo par heure à Yenakievo

Ce jour, 20 Septembre, Dimanche

Heure Température Précipitation Vent Pression Humidité
00:00 +11°C° 0 mm 3 m/s 745 mmHg 57%
01:00 +12°C° 0 mm 2 m/s 745 mmHg 58%
02:00 +10°C° 0 mm 2 m/s 745 mmHg 60%
03:00 +10°C° 0 mm 2 m/s 745 mmHg 62%
04:00 +9°C° 0 mm 2 m/s 745 mmHg 63%
05:00 +9°C° 0 mm 2 m/s 745 mmHg 64%
06:00 +9°C° 0 mm 2 m/s 745 mmHg 66%
07:00 +10°C° 0 mm 3 m/s 745 mmHg 60%
08:00 +12°C° 0 mm 3 m/s 745 mmHg 54%
09:00 +14°C° 0 mm 3 m/s 745 mmHg 48%
10:00 +17°C° 0 mm 4 m/s 745 mmHg 44%
11:00 +17°C° 0 mm 5 m/s 745 mmHg 40%
12:00 +20°C° 0 mm 5 m/s 746 mmHg 36%
13:00 +20°C° 0 mm 5 m/s 746 mmHg 33%
14:00 +21°C° 0 mm 5 m/s 746 mmHg 30%
15:00 +21°C° 0 mm 5 m/s 746 mmHg 27%
16:00 +20°C° 0 mm 4 m/s 746 mmHg 29%
17:00 +19°C° 0 mm 4 m/s 746 mmHg 32%
18:00 +18°C° 0 mm 3 m/s 746 mmHg 34%
19:00 +16°C° 0 mm 3 m/s 746 mmHg 39%
20:00 +14°C° 0 mm 3 m/s 747 mmHg 43%
21:00 +12°C° 0 mm 3 m/s 747 mmHg 48%
22:00 +11°C° 0 mm 3 m/s 748 mmHg 50%
23:00 +12°C° 0 mm 2 m/s 748 mmHg 52%

Demain, 21 Septembre, Lundi

Heure Température Précipitation Vent Pression Humidité
00:00 +10°C° 0 mm 2 m/s 748 mmHg 54%
01:00 +9°C° 0 mm 2 m/s 748 mmHg 55%
02:00 +9°C° 0 mm 2 m/s 749 mmHg 57%
03:00 +8°C° 0 mm 2 m/s 749 mmHg 58%
04:00 +8°C° 0 mm 2 m/s 749 mmHg 59%
05:00 +8°C° 0 mm 1 m/s 749 mmHg 60%
06:00 +8°C° 0 mm 1 m/s 749 mmHg 61%
07:00 +10°C° 0 mm 1 m/s 749 mmHg 54%
08:00 +12°C° 0 mm 1 m/s 750 mmHg 47%
09:00 +15°C° 0 mm 2 m/s 750 mmHg 39%
10:00 +16°C° 0 mm 1 m/s 750 mmHg 34%
11:00 +19°C° 0 mm 1 m/s 750 mmHg 29%
12:00 +21°C° 0 mm 1 m/s 750 mmHg 24%
13:00 +21°C° 0 mm 1 m/s 749 mmHg 22%
14:00 +22°C° 0 mm 1 m/s 749 mmHg 20%
15:00 +21°C° 0 mm 2 m/s 749 mmHg 18%
16:00 +21°C° 0 mm 1 m/s 748 mmHg 19%
17:00 +20°C° 0 mm 1 m/s 748 mmHg 21%
18:00 +19°C° 0 mm 1 m/s 748 mmHg 22%
19:00 +18°C° 0 mm 1 m/s 748 mmHg 24%
20:00 +15°C° 0 mm 1 m/s 748 mmHg 26%
21:00 +14°C° 0 mm 1 m/s 748 mmHg 29%
22:00 +13°C° 0 mm 1 m/s 748 mmHg 30%
23:00 +13°C° 0 mm 1 m/s 749 mmHg 31%

Après-demain, 22 Septembre, Mardi

Heure Température Précipitation Vent Pression Humidité
00:00 +11°C° 0 mm 0 m/s 749 mmHg 32%
01:00 +11°C° 0 mm 0 m/s 748 mmHg 33%
02:00 +10°C° 0 mm 0 m/s 748 mmHg 34%
03:00 +10°C° 0 mm 0 m/s 748 mmHg 35%
04:00 +10°C° 0 mm 0 m/s 748 mmHg 36%
05:00 +9°C° 0 mm 0 m/s 748 mmHg 37%
06:00 +9°C° 0 mm 0 m/s 749 mmHg 38%
07:00 +13°C° 0 mm 1 m/s 749 mmHg 33%
08:00 +15°C° 0 mm 1 m/s 749 mmHg 29%
09:00 +19°C° 0 mm 1 m/s 749 mmHg 24%
10:00 +20°C° 0 mm 1 m/s 749 mmHg 22%
11:00 +22°C° 0 mm 1 m/s 749 mmHg 19%
12:00 +24°C° 0 mm 1 m/s 749 mmHg 17%
13:00 +24°C° 0 mm 1 m/s 749 mmHg 16%
14:00 +25°C° 0 mm 1 m/s 749 mmHg 15%
15:00 +26°C° 0 mm 1 m/s 748 mmHg 14%
16:00 +24°C° 0 mm 1 m/s 748 mmHg 15%
17:00 +23°C° 0 mm 1 m/s 748 mmHg 17%
18:00 +21°C° 0 mm 1 m/s 748 mmHg 19%
19:00 +20°C° 0 mm 1 m/s 748 mmHg 21%
20:00 +19°C° 0 mm 1 m/s 748 mmHg 22%
21:00 +16°C° 0 mm 1 m/s 748 mmHg 24%
22:00 +16°C° 0 mm 1 m/s 748 mmHg 25%
23:00 +15°C° 0 mm 1 m/s 748 mmHg 26%

23 Septembre, Mercredi

Heure Température Précipitation Vent Pression Humidité
00:00 +14°C° 0 mm 1 m/s 747 mmHg 27%
01:00 +14°C° 0 mm 1 m/s 747 mmHg 28%
02:00 +14°C° 0 mm 1 m/s 747 mmHg 29%
03:00 +13°C° 0 mm 1 m/s 747 mmHg 29%
04:00 +13°C° 0 mm 1 m/s 747 mmHg 30%
05:00 +13°C° 0 mm 1 m/s 747 mmHg 30%
06:00 +13°C° 0 mm 1 m/s 747 mmHg 30%
07:00 +15°C° 0 mm 1 m/s 747 mmHg 27%
08:00 +18°C° 0 mm 1 m/s 747 mmHg 23%
09:00 +20°C° 0 mm 2 m/s 748 mmHg 20%
10:00 +23°C° 0 mm 2 m/s 747 mmHg 18%
11:00 +24°C° 0 mm 2 m/s 747 mmHg 16%
12:00 +26°C° 0 mm 2 m/s 747 mmHg 14%
13:00 +27°C° 0 mm 2 m/s 747 mmHg 14%
14:00 +27°C° 0 mm 2 m/s 746 mmHg 13%
15:00 +28°C° 0 mm 2 m/s 746 mmHg 12%
16:00 +26°C° 0 mm 2 m/s 745 mmHg 14%
17:00 +25°C° 0 mm 2 m/s 745 mmHg 15%
18:00 +24°C° 0 mm 2 m/s 745 mmHg 17%
19:00 +21°C° 0 mm 2 m/s 745 mmHg 19%
20:00 +20°C° 0 mm 3 m/s 745 mmHg 20%
21:00 +18°C° 0 mm 3 m/s 745 mmHg 22%
22:00 +17°C° 0 mm 3 m/s 745 mmHg 24%
23:00 +17°C° 0 mm 3 m/s 745 mmHg 25%

24 Septembre, Jeudi

Heure Température Précipitation Vent Pression Humidité
00:00 +16°C° 0 mm 3 m/s 745 mmHg 27%
01:00 +16°C° 0 mm 2 m/s 745 mmHg 28%
02:00 +15°C° 0 mm 2 m/s 745 mmHg 29%
03:00 +15°C° 0 mm 2 m/s 745 mmHg 30%
04:00 +15°C° 0 mm 2 m/s 745 mmHg 31%
05:00 +14°C° 0 mm 2 m/s 745 mmHg 32%
06:00 +14°C° 0 mm 2 m/s 745 mmHg 32%
07:00 +16°C° 0 mm 2 m/s 745 mmHg 30%
08:00 +18°C° 0 mm 3 m/s 745 mmHg 28%
09:00 +20°C° 0 mm 3 m/s 745 mmHg 26%
10:00 +22°C° 0 mm 4 m/s 745 mmHg 23%
11:00 +25°C° 0 mm 4 m/s 745 mmHg 21%
12:00 +27°C° 0 mm 5 m/s 745 mmHg 19%
13:00 +28°C° 0 mm 5 m/s 744 mmHg 17%
14:00 +28°C° 0 mm 5 m/s 744 mmHg 16%
15:00 +29°C° 0 mm 5 m/s 744 mmHg 15%
16:00 +27°C° 0 mm 4 m/s 744 mmHg 17%
17:00 +26°C° 0 mm 4 m/s 744 mmHg 18%
18:00 +24°C° 0 mm 3 m/s 743 mmHg 20%
19:00 +22°C° 0 mm 3 m/s 743 mmHg 21%
20:00 +21°C° 0 mm 4 m/s 743 mmHg 23%
21:00 +19°C° 0 mm 4 m/s 743 mmHg 25%
22:00 +19°C° 0 mm 4 m/s 743 mmHg 27%
23:00 +18°C° 0 mm 4 m/s 743 mmHg 30%

25 Septembre, Vendredi

Heure Température Précipitation Vent Pression Humidité
00:00 +17°C° 0 mm 3 m/s 743 mmHg 33%
01:00 +17°C° 0 mm 3 m/s 743 mmHg 35%
02:00 +17°C° 0 mm 3 m/s 743 mmHg 37%
03:00 +16°C° 0 mm 3 m/s 743 mmHg 39%
04:00 +16°C° 0 mm 3 m/s 743 mmHg 40%
05:00 +15°C° 0 mm 4 m/s 743 mmHg 42%
06:00 +15°C° 0 mm 4 m/s 743 mmHg 43%
07:00 +16°C° 0 mm 5 m/s 743 mmHg 41%
08:00 +19°C° 0 mm 5 m/s 742 mmHg 38%
09:00 +20°C° 0 mm 6 m/s 742 mmHg 35%
10:00 +22°C° 0 mm 7 m/s 742 mmHg 31%
11:00 +24°C° 0 mm 7 m/s 742 mmHg 27%
12:00 +27°C° 0 mm 8 m/s 742 mmHg 22%
13:00 +28°C° 0 mm 8 m/s 741 mmHg 22%
14:00 +28°C° 0 mm 8 m/s 741 mmHg 21%
15:00 +29°C° 0 mm 7 m/s 741 mmHg 20%
16:00 +28°C° 0 mm 6 m/s 740 mmHg 22%
17:00 +27°C° 0 mm 5 m/s 740 mmHg 24%
18:00 +26°C° 0 mm 4 m/s 740 mmHg 26%
19:00 +25°C° 0 mm 5 m/s 740 mmHg 28%
20:00 +22°C° 0 mm 5 m/s 740 mmHg 30%
21:00 +21°C° 0 mm 6 m/s 740 mmHg 31%
22:00 +21°C° 0 mm 6 m/s 739 mmHg 32%
23:00 +20°C° 0 mm 6 m/s 739 mmHg 33%
Voir plus